Location: LDNL
(36.4545°S, 141.6685°E)
Time: 18:22:12
(UTC+10:00)

A-11 Canister half - Pass Details

Date: 01 February 2022
Orbit: 1527 x 1682 km, 47.3° (Epoch: 20 May)

Event Time Altitude Azimuth Distance (km) Brightness Sun altitude
Rises 23:54:42 0° 288° (WNW) 4,934 11.8 -30.1°
Reaches altitude 10° 23:57:56 10° 284° (WNW) 3,950 11.3 -30.4°
Maximum altitude 00:08:01 62° 204° (SSW) 1,852 9.5 -31.4°
Drops below altitude 10° 00:17:58 10° 123° (ESE) 3,899 11.2 -32.3°
Sets 00:21:09 0° 119° (ESE) 4,867 11.7 -32.6°
